Location: Limoges
(45.8500°N, 1.2500°E)
Time: 02:46:57
(UTC+02:00)

ISS - Pass Details

Date: 01 October 2021
Orbit: 417 x 423 km, 51.6° (Epoch: 21 October)

Event Time Altitude Azimuth Distance (km) Brightness Sun altitude
Rises 20:14:17 0° 297° (WNW) 2,365 1.5 -7.7°
Reaches altitude 10° 20:16:27 10° 304° (NW) 1,501 0.1 -8.1°
Maximum altitude 20:19:41 42° 17° (NNE) 612 -3.0 -8.6°
Enters shadow 20:22:28 13° 88° (E) 1,335 -1.9 -9.1°
